Home   Weather   Birmingham   Past weeks

Flag for USA Past Weather in Birmingham, Alabama, USA — Yesterday and Last 2 Weeks

Now
56 °F

Clear.


Feels Like: 56 °F
Forecast: 52 / 82 °F
Wind: No wind

Location: Birmingham International Airport

Current Time: Apr 25, 2017 at 1:54:12 am

Latest Report: Apr 25, 2017 at 12:53 am


Visibility: 10 mi

Pressure: 29.80 "Hg

Humidity: 93%

Dew Point: 54 °F

Location of BirminghamLocation

Past Weather in Birmingham — Graph

°F

Birmingham Temperature Yesterday

Maximum temperature yesterday: 71 °F (at 4:53 pm)
Minimum temperature yesterday: 51 °F (at 2:36 am)
Average temperature yesterday: 59 °F

High & Low Weather Summary for the Past Weeks

 TemperatureHumidityPressure
High87 °F (Apr 13, 3:53 pm)97% (Apr 23, 1:53 am)30.30 "Hg (Apr 23, 1:53 am)
Low51 °F (Apr 23, 11:30 pm)24% (Apr 13, 3:53 pm)29.76 "Hg (Apr 24, 5:53 pm)
Average70 °F62%30.09 "Hg
* Reported Apr 9 11:53 pm — Apr 24 11:53 pm, Birmingham, Weather by CustomWeather, © 2017

Note: Actual official high and low records may vary slightly from our data, if they occured in-between our weather recording intervals... More about our weather records

Advertising

Birmingham Weather History for the Previous 24 Hours

Scroll right to see more
 ConditionsComfort  
Time TempWeatherWind HumidityBarometerVisibility
11:53 pm
Mon, Apr 24
58 °FClear.No wind90%29.80 "Hg10 mi
10:53 pm59 °FClear.No wind90%29.79 "Hg10 mi
9:53 pm61 °FClear.No wind83%29.80 "Hg10 mi
8:53 pm62 °FPassing clouds.7 mph78%29.78 "Hg10 mi
7:53 pm62 °FPassing clouds.No wind80%29.77 "Hg10 mi
6:53 pm69 °FPassing clouds.7 mph59%29.76 "Hg10 mi
5:53 pm70 °FScattered clouds.7 mph55%29.76 "Hg10 mi
4:53 pm71 °FPartly sunny.13 mph53%29.77 "Hg10 mi
3:53 pm70 °FPartly sunny.13 mph55%29.79 "Hg10 mi
2:53 pm68 °FScattered clouds.6 mph57%29.80 "Hg10 mi
1:53 pm67 °FPartly sunny.12 mph61%29.83 "Hg10 mi
12:53 pm66 °FPartly sunny.8 mph63%29.83 "Hg10 mi
12:16 pm62 °FPartly sunny.8 mph67%29.87 "Hg10 mi
12:06 pm62 °FScattered clouds.6 mph67%29.86 "Hg10 mi
11:53 am62 °FPartly sunny.6 mph67%29.85 "Hg10 mi
10:53 am58 °FPartly sunny.7 mph75%29.86 "Hg10 mi
10:19 am57 °FOvercast.9 mph78%29.87 "Hg10 mi
9:53 am56 °FOvercast.10 mph77%29.87 "Hg10 mi
9:24 am55 °FMostly cloudy.7 mph80%29.87 "Hg10 mi
8:53 am54 °FOvercast.9 mph83%29.87 "Hg10 mi
7:53 am53 °FOvercast.7 mph83%29.84 "Hg10 mi
6:53 am52 °FOvercast.5 mph86%29.82 "Hg10 mi
5:53 am52 °FOvercast.6 mph86%29.79 "Hg10 mi
4:53 am52 °FOvercast.3 mph86%29.79 "Hg10 mi
4:14 am52 °FOvercast.3 mph86%29.80 "Hg10 mi
3:53 am52 °FLow clouds.5 mph89%29.79 "Hg10 mi
2:53 am52 °FLow clouds.7 mph89%29.80 "Hg10 mi
2:36 am51 °FLow clouds.5 mph92%29.81 "Hg10 mi
1:53 am52 °FLow clouds.7 mph89%29.81 "Hg10 mi
Weather by CustomWeather, © 2017

See weather overviewHow to use our weather pages